Location: Gleizolles
(44.4833°N, 6.7667°E)
Time: 23:53:04
(UTC+00:00)

Vanguard 2 Rocket - Pass Details

Date: 20 June 2024
Orbit: 555 x 3302 km, 32.9° (Epoch: 24 July)

Event Time Altitude Azimuth Distance (km) Brightness Sun altitude
Rises 09:20:10 0° 275° (W) 6,275 10.9 55.5°
Reaches altitude 10° 09:27:20 10° 256° (WSW) 4,616 10.4 56.6°
Maximum altitude 09:32:53 14° 229° (SW) 3,682 10.1 57.5°
Drops below altitude 10° 09:37:21 10° 199° (SSW) 3,522 10.1 58.1°
Sets 09:41:31 0° 175° (S) 4,002 10.5 58.8°
